Location: Unspecified
(0.0000°N, 0.0000°E)
Time: 19:33:09
(UTC+00:00)

Vanguard 1 Rocket - Pass Details

Date: 22 April 2026
Orbit: 655 x 4212 km, 34.3° (Epoch: 17 May)

Event Time Altitude Azimuth Distance (km) Brightness Sun altitude
Rises 20:58:42 0° 281° (W) 7,248 12.8 -43.7°
Reaches altitude 10° 21:04:52 10° 294° (WNW) 6,692 12.4 -45.2°
Maximum altitude 21:23:05 26° 343° (NNW) 6,089 11.6 -49.5°
Drops below altitude 10° 21:42:26 10° 34° (NNE) 6,978 11.7 -54.0°
Sets 21:49:17 0° 46° (NE) 7,579 11.9 -55.6°
